COSMOS 2251 DEB, 38064

Orbit data source: Space-Track

COSMOS 2251 DEB, 38064 is space debris in LEO originally from a launch on Wed, 16 Jun 1993 UTC launched from the Plesetsk Missile And Space Complex (PKMTR). The debris from Iridium 33, an American commercial communications satellite, has been tracked extensively since its accidental collision with the defunct Russian satellite Cosmos 2251 in 2009. This event, occurring at high speed in low Earth orbit (LEO), generated thousands of pieces of space debris, significantly increasing the risk of further collisions. The Iridium 33 debris cloud has impacted space traffic management and orbital debris mitigation strategies, making it a subject of ongoing study in space situational awareness.

Loading next visibility...
Identifier
38064, 1993-036BRW
Orbit
LEO
Country
Flag of CISCIS
Related business
Manufacturer
Unknown
Mission
Spacecraft
Bus & Motor
Unknown
Mass
Unknown
Launch date (UTC)
1993-06-16 (33 years ago)
Launch vehicle
Unknown
Launch site
Plesetsk Missile And Space Complex (PKMTR)
Object type
Payload
Rocket body
Debris
Shape & HBR
Unknown shape, 0.1 m
Radar Cross Section
Small (<0.1 m²)

Expand to show TLE details & history
Last TLE update: 17 hours ago

TLE from 17 hours ago
0 COSMOS 2251 DEB
1 38064U 93036BRW 26207.01118502  .00002901  00000-0  63268-3 0  9997
2 38064  74.0204  55.8756 0046330 118.9245 241.6578 14.57690102751463
Epoch: 2026-07-26T00:16Z
TLE epoch observation values (Epoch: 2026-07-26T00:16:06.385Z)
Latitude
-0.00005°
Longitude
108.13374°
Altitude
718.968 km
Speed
7.488 km/s
True Right ascension
03h 43m 30s
True Declination
0° 00' 00"
Sunlit
Object was in daylight at epoch
Visualization orbit readout
Latitude
Unknown
Longitude
Unknown
Altitude
Unknown
Speed
Unknown
Apparent Right ascension
Unknown
Apparent Declination
Unknown
Sunlit
N/A
Visualization observer readout
Local Sidereal Time
06:34:01
Azimuth
Unknown
Elevation
Unknown
Doppler factor
Unknown
Orbital elements
Apogee altitude
731.029 km
Perigee altitude
665.459 km
Semi-major axis
7,076.381 km
Eccentricity
0.00463
Inclination
74.0204°
RAAN
55.8756°
Arg. of periapsis
118.9245°
True anomaly
241.19182°
Mean anomaly
241.6578°
Eccentric anomaly
241.42468°
Mean motion
3.64608 °/min
Orbital period
98.74 mins
BSTAR
0.00063268
Loading maneuver chart data...
Computing Atmospheric mass density...

Documentation

Showing up to 5 results
|